Weather History for K0A9 - April, 2014

Change the Weather History Date:

Friday, April 25, 2014

  Actual Average (KTRI) Record (KTRI)
Temperature  
Mean Temperature 57 °F 58 °F  
Max Temperature 66 °F 71 °F 87 °F (1960)
Min Temperature 48 °F 45 °F 31 °F (1967)
Degree Days  
Heating Degree Days 8 8  
Month to date heating degree days 270  
Since 1 July heating degree days 4220  
Cooling Degree Days 0 1  
Month to date cooling degree days 4  
Year to date cooling degree days 5  
Growing Degree Days 7 (Base 50)    
Moisture  
Dew Point 49 °F    
Average Humidity 72    
Maximum Humidity 94    
Minimum Humidity 48    
Precipitation  
Precipitation 0.00 in 0.12 in 1.99 in (1975)
Month to date precipitation 2.76  
Year to date precipitation 13.02  
Snow  
Snow 0.00 in 0.00 in - ()
Month to date snowfall 1.0  
Since 1 July snowfall 13.2  
Snow Depth -    
Sea Level Pressure  
Sea Level Pressure 29.86 in    
Wind  
Wind Speed 1 mph (WSW)    
Max Wind Speed 25 mph    
Max Gust Speed 34 mph    
Visibility 9 miles    
Events Rain    
T = Trace of Precipitation, MM = Missing Value Source: NWS Daily Summary

Daily Weather History Graph

Daily Weather History Graph

Search for Another Location

Airport or City:

Trip Planner

Search our weather history database for the weather conditions in past years. The results will help you decide how hot, cold, wet, or windy it might be!

Date:

Astronomy

Apr. 25, 2014 Rise Set
Actual Time 6:42 AM EDT 8:11 PM EDT
Civil Twilight 6:15 AM EDT 8:38 PM EDT
Nautical Twilight 5:42 AM EDT 9:11 PM EDT
Astronomical Twilight 5:08 AM EDT 9:45 PM EDT
Moon 4:22 AM EDT (4/25) 4:38 PM EDT (4/25)
Length of Visible Light 14h 23m
Length of Day
13h 28m
Waning Crescent, 15% of the Moon is Illuminated
Apr 25
Waning Crescent
Apr 29
New
May 6
First Quarter
May 14
Full
May 21
Last Quarter

Hourly Weather History & Observations

Time (EDT) Temp. Dew Point Humidity Pressure Visibility Wind Dir Wind Speed Gust Speed Precip Events Conditions
12:15 AM 51.8 °F 39.2 °F 62% 29.93 in 10.0 mi Calm Calm - N/A   Clear
12:35 AM 53.6 °F 37.4 °F 54% 29.92 in 10.0 mi Calm Calm - N/A   Clear
12:55 AM 53.6 °F 39.2 °F 58% 29.92 in 10.0 mi Calm Calm - N/A   Clear
1:15 AM 53.6 °F 37.4 °F 54% 29.92 in 10.0 mi Calm Calm - N/A   Clear
1:35 AM 51.8 °F 41.0 °F 67% 29.93 in 10.0 mi Calm Calm - N/A   Clear
1:55 AM 51.8 °F 42.8 °F 71% 29.93 in 10.0 mi Calm Calm - N/A   Clear
2:15 AM 51.8 °F 42.8 °F 71% 29.91 in 10.0 mi Calm Calm - N/A   Clear
2:35 AM 51.8 °F 42.8 °F 71% 29.90 in 10.0 mi Calm Calm - N/A   Clear
2:55 AM 55.4 °F 39.2 °F 54% 29.89 in 10.0 mi Calm Calm - N/A   Clear
3:15 AM 55.4 °F 39.2 °F 54% 29.87 in 10.0 mi Calm Calm - N/A   Clear
3:35 AM 57.2 °F 37.4 °F 48% 29.87 in 10.0 mi Calm Calm - N/A   Clear
3:55 AM 55.4 °F 39.2 °F 54% 29.87 in 10.0 mi Calm Calm - N/A   Clear
4:15 AM 57.2 °F 39.2 °F 51% 29.87 in 10.0 mi Calm Calm - N/A   Clear
4:35 AM 57.2 °F 39.2 °F 51% 29.86 in 10.0 mi Calm Calm - N/A   Clear
4:55 AM 59.0 °F 39.2 °F 48% 29.86 in 10.0 mi Calm Calm - N/A   Clear
5:15 AM 59.0 °F 41.0 °F 51% 29.85 in 10.0 mi Calm Calm - N/A   Clear
5:35 AM 57.2 °F 41.0 °F 55% 29.84 in 10.0 mi Calm Calm - N/A   Scattered Clouds
5:55 AM 59.0 °F 42.8 °F 55% 29.83 in 10.0 mi Calm Calm - N/A   Scattered Clouds
6:15 AM 60.8 °F 42.8 °F 52% 29.82 in 10.0 mi Calm Calm - N/A   Scattered Clouds
6:35 AM 60.8 °F 46.4 °F 59% 29.82 in 10.0 mi Calm Calm - N/A   Partly Cloudy
6:55 AM 59.0 °F 46.4 °F 63% 29.82 in 10.0 mi Calm Calm - N/A   Light Drizzle
7:15 AM 59.0 °F 46.4 °F 63% 29.82 in 10.0 mi Calm Calm - N/A   Light Drizzle
7:35 AM 59.0 °F 48.2 °F 67% 29.82 in 10.0 mi Calm Calm - N/A   Mostly Cloudy
7:55 AM 60.8 °F 48.2 °F 63% 29.82 in 10.0 mi Calm Calm - N/A   Mostly Cloudy
8:15 AM 60.8 °F 48.2 °F 63% 29.81 in 10.0 mi Calm Calm - N/A   Overcast
8:35 AM 62.6 °F 50.0 °F 63% 29.80 in 10.0 mi Calm Calm - N/A   Overcast
8:55 AM 62.6 °F 50.0 °F 63% 29.80 in 10.0 mi Calm Calm - N/A   Overcast
9:15 AM 62.6 °F 51.8 °F 68% 29.80 in 10.0 mi Calm Calm - N/A   Mostly Cloudy
9:35 AM 64.4 °F 53.6 °F 68% 29.81 in 8.0 mi SW 9.2 mph - N/A Rain Rain
9:55 AM 60.8 °F 57.2 °F 88% 29.79 in 5.0 mi Calm Calm - N/A Rain Light Rain
10:15 AM 62.6 °F 57.2 °F 82% 29.78 in 10.0 mi Calm Calm - N/A   Mostly Cloudy
10:35 AM 64.4 °F 57.2 °F 77% 29.76 in 10.0 mi Calm Calm - N/A   Scattered Clouds
10:55 AM 62.6 °F 57.2 °F 82% 29.76 in 8.0 mi Calm Calm - N/A Rain Light Rain
11:15 AM 60.8 °F 59.0 °F 94% 29.78 in 6.0 mi Calm Calm - N/A Rain Light Rain
11:35 AM 64.4 °F 59.0 °F 83% 29.78 in 10.0 mi West 4.6 mph - N/A   Mostly Cloudy
11:55 AM 60.8 °F 57.2 °F 88% 29.81 in 2.0 mi Variable 3.5 mph - N/A Rain Heavy Rain
12:15 PM 59.0 °F 57.2 °F 94% 29.80 in 6.0 mi Calm Calm - N/A Rain Light Rain
12:35 PM 62.6 °F 57.2 °F 82% 29.78 in 10.0 mi Calm Calm - N/A   Mostly Cloudy
12:55 PM 66.2 °F 60.8 °F 83% 29.77 in 10.0 mi Calm Calm - N/A   Partly Cloudy
1:15 PM 66.2 °F 57.2 °F 73% 29.76 in 10.0 mi WSW 16.1 mph - N/A   Partly Cloudy
1:35 PM 64.4 °F 55.4 °F 73% 29.81 in 9.0 mi WNW 25.3 mph 34.5 mph N/A Rain Light Rain
1:55 PM 55.4 °F 53.6 °F 94% 29.85 in 6.0 mi SW 10.4 mph 18.4 mph N/A Rain Light Rain
2:15 PM 55.4 °F 53.6 °F 94% 29.86 in 5.0 mi Calm Calm - N/A Rain Light Rain
2:35 PM 55.4 °F 53.6 °F 94% 29.86 in 8.0 mi Calm Calm - N/A Rain Light Rain
2:55 PM 57.2 °F 53.6 °F 88% 29.85 in 10.0 mi Calm Calm - N/A   Overcast
3:15 PM 60.8 °F 55.4 °F 82% 29.84 in 10.0 mi Calm Calm - N/A   Overcast
3:35 PM 62.6 °F 55.4 °F 77% 29.84 in 10.0 mi West 3.5 mph 17.3 mph N/A   Mostly Cloudy
3:55 PM 60.8 °F 53.6 °F 77% 29.84 in 10.0 mi Calm Calm - N/A   Overcast
4:15 PM 60.8 °F 55.4 °F 82% 29.85 in 10.0 mi Calm Calm - N/A   Overcast
4:35 PM 60.8 °F 53.6 °F 77% 29.85 in 10.0 mi WSW 5.8 mph 16.1 mph N/A   Overcast
4:55 PM 59.0 °F 55.4 °F 88% 29.86 in 3.0 mi Variable 3.5 mph - N/A Rain Light Rain
5:15 PM 62.6 °F 55.4 °F 77% 29.86 in 10.0 mi Calm Calm - N/A   Overcast
5:35 PM 60.8 °F 53.6 °F 77% 29.86 in 10.0 mi Calm Calm - N/A   Overcast
5:55 PM 60.8 °F 51.8 °F 72% 29.87 in 10.0 mi Calm Calm - N/A   Overcast
6:15 PM 60.8 °F 51.8 °F 72% 29.88 in 10.0 mi Calm Calm - N/A   Overcast
6:35 PM 62.6 °F 51.8 °F 68% 29.89 in 10.0 mi Calm Calm - N/A   Mostly Cloudy
6:55 PM 60.8 °F 51.8 °F 72% 29.88 in 10.0 mi Calm Calm - N/A   Overcast
7:15 PM 60.8 °F 50.0 °F 68% 29.89 in 10.0 mi Calm Calm - N/A   Overcast
7:35 PM 60.8 °F 51.8 °F 72% 29.90 in 10.0 mi Calm Calm - N/A   Mostly Cloudy
7:55 PM 60.8 °F 50.0 °F 68% 29.90 in 10.0 mi Calm Calm - N/A   Partly Cloudy
8:15 PM 59.0 °F 50.0 °F 72% 29.90 in 10.0 mi Calm Calm - N/A   Partly Cloudy
8:35 PM 57.2 °F 50.0 °F 77% 29.91 in 10.0 mi Calm Calm - N/A   Clear
8:55 PM 57.2 °F 48.2 °F 72% 29.93 in 10.0 mi Calm Calm - N/A   Clear
9:15 PM 57.2 °F 48.2 °F 72% 29.94 in 10.0 mi Calm Calm - N/A   Clear
9:35 PM 57.2 °F 48.2 °F 72% 29.96 in 10.0 mi Calm Calm - N/A   Clear
9:55 PM 55.4 °F 48.2 °F 77% 29.97 in 10.0 mi Calm Calm - N/A   Clear
10:15 PM 53.6 °F 48.2 °F 82% 29.97 in 10.0 mi Calm Calm - N/A   Clear
10:35 PM 53.6 °F 48.2 °F 82% 29.98 in 10.0 mi Calm Calm - N/A   Clear
10:55 PM 53.6 °F 46.4 °F 77% 29.98 in 10.0 mi Calm Calm - N/A   Clear
11:15 PM 51.8 °F 46.4 °F 82% 29.99 in 10.0 mi Calm Calm - N/A   Clear
11:35 PM 48.2 °F 46.4 °F 93% 29.99 in 10.0 mi Calm Calm - N/A   Clear
11:55 PM 48.2 °F 46.4 °F 93% 29.99 in 10.0 mi Calm Calm - N/A   Clear